User: anonymous   Login
Location: Unspecified
(0.0000°N, 0.0000°E)
Time: 19:51:06
(UTC+00:00)
Language:

JASON 3 - Orbit

View from above orbital plane
View from above orbital plane
View from above satellite
View from above satellite

Ground track
Ground track

The orbit data is extracted from the following two-line orbital elements,

1 41240U 16002A   18344.54506506 -.00000040  00000-0  92631-4 0  9991
2 41240  66.0424  77.7257 0007474 268.7099  91.3060 12.80931132135483
Epoch (UTC): 10 December 2018 13:04:53
Eccentricity: 0.0007474
inclination: 66.0424°
perigee height: 1332 km
apogee height: 1343 km
right ascension of ascending node: 77.7257°
argument of perigee: 268.7099°
revolutions per day: 12.80931132
mean anomaly at epoch: 91.3060°
orbit number at epoch: 13548

The dashed part of the orbit path shows where the satellite is in the earth's shadow,  

DLR